Location: Anumalkud?ru
(16.4847°N, 80.6636°E)
Time: 08:56:30
(UTC+00:00)

SPOT 5 - Pass Details

Date: 11 April 2026
Orbit: 618 x 803 km, 98.0° (Epoch: 12 May)

Event Time Altitude Azimuth Distance (km) Brightness Sun altitude
Exits shadow 14:15:06 41° 85° (E) 1,058 3.2 -20.3°
Maximum altitude 14:15:21 41° 77° (ENE) 1,051 3.3 -20.3°
Drops below altitude 10° 14:19:50 10° 7° (N) 2,177 5.4 -21.4°
Sets 14:22:07 0° 0° (N) 3,066 6.3 -21.9°
